Погода в Юве

Россия / Свердловская область     56°26′02″N   57°56′59″E
темп.,
°C
ветер,
м/с
пор.,
м/с
влажн.,
%
обл.,
%
осадки,
мм/ч
давл.,
гПа
погр.,
м
23 апреля, пт
пт2323:00+4ююз51091100 0.6 1031846
02:00+2ю41297100 3.8 1031593
05:00+2ю3999100 7.1 1031429
08:00+3ююз4797100 0.3 1031698
11:00+3ю2697100 0.4 1031547
14:00+5ююв2488100 0.0 1031506
17:00+7ююв2475100 0.0 1030731
20:00+6св2282100 0.0 102819
24 апреля, сб
сб2423:00+5всв228791 0.0 102816
02:00+5в2287100 0.0 102517
05:00+5вюв2295100 0.5 102443
08:00+5вюв4897100 0.3 1022284
11:00+6вюв5994100 0.4 1020522
14:00+6юв5891100 0.6 1019862
17:00+7юв6984100 0.8 1018848
20:00+6юв61180100 0.1 1017717
25 апреля, вс
вс2523:00+5вюв3687100 0.2 1016165
02:00+4юв4986100 0.0 1015273
05:00+3юв4895100 0.0 1014539
08:00+4ююв4793100 0.2 1013693
11:00+5ююв6991100 0.3 1012603
14:00+7ююв71286100 1.4 10101033
17:00+5зюз6128557 5.2 10111061
20:00+6юз5973100 0.4 1012332
26 апреля, пн
пн2623:00+4юз61378100 0.7 1012472
02:00+3юз613825 0.4 1013584
05:00+2зюз6128633 0.4 1015676
08:00+3зюз6119094 0.0 1017685
11:00+7зюз8115959 0.1 10171610
14:00+9зюз8114379 0.0 10172200
17:00+10юз71143100 0.0 10172183
20:00+8юз51054100 0.0 1017380
27 апреля, вт
вт2723:00+5ююз3866100 0.0 1016172
02:00+5ю2264100 0.0 101519
05:00+4юв1166100 0.0 101410
08:00+4юв4775100 0.0 1013489
11:00+6юв5877100 0.2 1011757
14:00+7в5776100 0.3 1009991
17:00+5вюв4584100 0.4 1008788
20:00+4юв2394100 0.1 1008698